Weather History for KHOB - January, 2013

Change the Weather History Date:

Sunday, January 13, 2013

  Actual Average Record
Temperature  
Mean Temperature 29 °F -  
Max Temperature 35 °F 56 °F 76 °F (1957)
Min Temperature 23 °F 29 °F 10 °F (1997)
Degree Days  
Heating Degree Days 36    
Moisture  
Dew Point 19 °F    
Average Humidity 71    
Maximum Humidity 93    
Minimum Humidity 44    
Precipitation  
Precipitation 0.00 in - - ()
Sea Level Pressure  
Sea Level Pressure 30.08 in    
Wind  
Wind Speed 5 mph (ENE)    
Max Wind Speed 13 mph    
Max Gust Speed -    
Visibility 10 miles    
Events      
Averages and records for this station are not official NWS values.
T = Trace of Precipitation, MM = Missing Value Source: NWS Daily Summary

Daily Weather History Graph

Daily Weather History Graph

Search for Another Location

Airport or City:

Trip Planner

Search our weather history database for the weather conditions in past years. The results will help you decide how hot, cold, wet, or windy it might be!

Date:

Astronomy

Jan. 13, 2013 Rise Set
Actual Time 6:55 AM MST 5:08 PM MST
Civil Twilight 6:28 AM MST 5:34 PM MST
Nautical Twilight 5:58 AM MST 6:05 PM MST
Astronomical Twilight 5:28 AM MST 6:34 PM MST
Moon 8:04 AM MST (1/13) 7:38 PM MST (1/13)
Length of Visible Light 11h 06m
Length of Day
10h 12m
Waxing Crescent, 5% of the Moon is Illuminated
Jan 13
Waxing Crescent
Jan 18
First Quarter
Jan 26
Full
Feb 3
Last Quarter
Feb 10
New

Hourly Weather History & Observations

Time (MST) Temp. Windchill Dew Point Humidity Pressure Visibility Wind Dir Wind Speed Gust Speed Precip Events Conditions
12:15 AM 28.4 °F - 17.6 °F 64% 30.00 in 10.0 mi Calm Calm - N/A   Clear
12:35 AM 26.6 °F 20.0 °F 21.2 °F 80% 30.00 in 10.0 mi East 5.8 mph - N/A   Clear
12:55 AM 26.6 °F 21.2 °F 23.0 °F 86% 30.01 in 10.0 mi East 4.6 mph - N/A   Clear
1:15 AM 24.8 °F 16.9 °F 23.0 °F 93% 30.02 in 10.0 mi East 6.9 mph - N/A   Clear
1:35 AM 24.8 °F 16.9 °F 23.0 °F 93% 30.03 in 10.0 mi ENE 6.9 mph - N/A   Clear
1:55 AM 24.8 °F 16.1 °F 21.2 °F 86% 30.04 in 10.0 mi NNE 8.1 mph - N/A   Clear
2:15 AM 24.8 °F 14.0 °F 21.2 °F 86% 30.06 in 10.0 mi North 11.5 mph - N/A   Clear
2:35 AM 24.8 °F 16.1 °F 21.2 °F 86% 30.07 in 10.0 mi NNE 8.1 mph - N/A   Mostly Cloudy
3:15 AM 24.8 °F 16.9 °F 21.2 °F 86% 30.07 in 10.0 mi NE 6.9 mph - N/A   Partly Cloudy
3:35 AM 24.8 °F - 21.2 °F 86% 30.07 in 10.0 mi Calm Calm - N/A   Scattered Clouds
3:55 AM 24.8 °F - 23.0 °F 93% 30.07 in 10.0 mi Calm Calm - N/A   Mostly Cloudy
5:50 AM 24.8 °F 16.1 °F 21.2 °F 86% 30.10 in 10.0 mi North 8.1 mph - N/A   Overcast
6:50 AM 30.2 °F 24.3 °F 19.4 °F 64% 30.13 in 10.0 mi NNE 5.8 mph - N/A   Mostly Cloudy
7:50 AM 26.6 °F - 19.4 °F 74% 30.15 in 10.0 mi Calm Calm - N/A   Mostly Cloudy
9:05 AM 30.2 °F 25.4 °F 19.4 °F 64% 30.17 in 10.0 mi Variable 4.6 mph - N/A   Partly Cloudy
9:50 AM 32.0 °F - 19.4 °F 60% 30.17 in 10.0 mi Calm Calm - N/A   Clear
11:50 AM 32.0 °F - 19.4 °F 60% 30.11 in 10.0 mi Calm Calm - N/A   Clear
1:50 PM 35.6 °F - 15.8 °F 44% 30.05 in 10.0 mi Calm Calm - N/A   Clear
2:50 PM 35.6 °F 27.5 °F 15.8 °F 44% 30.06 in 10.0 mi East 11.5 mph - N/A   Clear
4:50 PM 33.8 °F 26.4 °F 15.8 °F 48% 30.06 in 10.0 mi East 9.2 mph - N/A   Clear
5:15 PM 32.0 °F - 15.8 °F 51% 30.07 in 10.0 mi Calm Calm - N/A   Clear
5:35 PM 32.0 °F - 15.8 °F 51% 30.07 in 10.0 mi Calm Calm - N/A   Clear
5:55 PM 30.2 °F - 15.8 °F 55% 30.08 in 10.0 mi Calm Calm - N/A   Clear
6:15 PM 28.4 °F 21.2 °F 17.6 °F 64% 30.08 in 10.0 mi ENE 6.9 mph - N/A   Clear
6:35 PM 28.4 °F 22.2 °F 17.6 °F 64% 30.08 in 10.0 mi East 5.8 mph - N/A   Clear
6:55 PM 28.4 °F 19.7 °F 17.6 °F 64% 30.08 in 10.0 mi East 9.2 mph - N/A   Clear
7:15 PM 28.4 °F 18.5 °F 17.6 °F 64% 30.07 in 10.0 mi East 11.5 mph - N/A   Clear
7:35 PM 28.4 °F 18.5 °F 17.6 °F 64% 30.08 in 10.0 mi East 11.5 mph - N/A   Clear
7:55 PM 26.6 °F 17.5 °F 17.6 °F 69% 30.09 in 10.0 mi East 9.2 mph - N/A   Clear
8:15 PM 26.6 °F 17.5 °F 19.4 °F 74% 30.09 in 10.0 mi East 9.2 mph - N/A   Clear
8:35 PM 26.6 °F 17.5 °F 19.4 °F 74% 30.10 in 10.0 mi East 9.2 mph - N/A   Clear
8:55 PM 24.8 °F 15.3 °F 19.4 °F 80% 30.10 in 10.0 mi East 9.2 mph - N/A   Clear
9:55 PM 24.8 °F 13.4 °F 17.6 °F 74% 30.11 in 10.0 mi East 12.7 mph - N/A   Clear
10:35 PM 23.0 °F 11.1 °F 17.6 °F 80% 30.12 in 10.0 mi East 12.7 mph - N/A   Clear
11:35 PM 23.0 °F 11.1 °F 15.8 °F 74% 30.13 in 10.0 mi East 12.7 mph - N/A   Clear
11:55 PM 23.0 °F 11.7 °F 15.8 °F 74% 30.13 in 10.0 mi East 11.5 mph - N/A   Scattered Clouds